Volver al catálogo

SL-8 R/B

ActivoPO
NORAD 20104·ROCKET BODY·🇷🇺 Russia

Lanzado Jul 4, 1989 desde Plesetsk Cosmodrome

Loading…

Próximos Pases (próximas 24 horas)

TLE

ActualizadoSource: Space-Track

Época: Sep 14, 2026, 05:38 UTC

1 20104U 89050B   26257.23533315  .00000092  00000-0  76344-4 0  9995
2 20104  82.9598 185.5640 0044976  86.2923 274.3376 13.77637250869140

Sigue SL-8 R/B en tiempo real con AllMySat

Download on the App Store